CZ-2D R/B, 68379

Orbit data source: Space-Track

CZ-2D R/B, 68379 is space debris in SSO originally from a launch on Wed, 25 Mar 2026 UTC launched from the Taiyaun Space Center, China (TSC). Debris objects in space refer to the collection of defunct objects orbiting the Earth. Examples of debris include non-operational satellites, rocket bodies, and fragments generated from explosions, collisions, or faulty payload assembly.

Loading next visibility...
Identifier
68379, 2026-062C
Orbit
SSO
Country
Flag of CNCN / PRC
Related business
Manufacturer
BWYIC
Mission
Spacecraft
Bus & Motor
CZ-2 STAGE 2, Unknown motor
Mass
4,006 kg wet, 4,006 kg dry
Launch date (UTC)
2026-03-25 (3 months ago)
Launch vehicle
Unknown
Launch site
Taiyaun Space Center, China (TSC)
Object type
Payload
Rocket body
Debris
Shape & HBR
Unknown shape, 3.5 m
Radar Cross Section
Large (>1 m²)

Expand to show TLE details & history
Last TLE update: 12 hours ago

TLE from 12 hours ago
0 CZ-2D R/B
1 68379U 26062C   26171.48973218  .00007514  00000-0  23273-3 0  9995
2 68379  97.4947 180.7865 0052330 112.4664 248.2131 15.32385419 13250
Epoch: 2026-06-20T11:45Z
TLE epoch observation values (Epoch: 2026-06-20T11:45:12.860Z)
Latitude
-0°
Longitude
95.7793°
Altitude
485.265 km
Speed
7.615 km/s
True Right ascension
12h 03m 08s
True Declination
0° 00' 00"
Sunlit
Object was in daylight at epoch
Visualization orbit readout
Latitude
Unknown
Longitude
Unknown
Altitude
Unknown
Speed
Unknown
Apparent Right ascension
Unknown
Apparent Declination
Unknown
Sunlit
N/A
Visualization observer readout
Local Sidereal Time
10:18:50
Azimuth
Unknown
Elevation
Unknown
Doppler factor
Unknown
Orbital elements
Apogee altitude
501.464 km
Perigee altitude
429.837 km
Semi-major axis
6,843.788 km
Eccentricity
0.00523
Inclination
97.4947°
RAAN
180.7865°
Arg. of periapsis
112.4664°
True anomaly
247.65763°
Mean anomaly
248.2131°
Eccentric anomaly
247.93523°
Mean motion
3.83353 °/min
Orbital period
93.91 mins
BSTAR
0.00023273
Loading maneuver chart data...
Computing Atmospheric mass density...
Loading historical data...
Loading historical data...
Loading historical data...
Loading historical data...
Loading historical data...
Loading historical data...
Loading historical data...
Other satellites on launch #62 in the year 2026 (2026-03-25 UTC)

Documentation

Showing up to 5 results
|